Location: Diebersbach
(48.5163°N, 8.0558°E)
Time: 08:43:30
(UTC+00:00)

CZ-4 R/B - Pass Details

Date: 20 June 2021
Orbit: 682 x 752 km, 98.5° (Epoch: 03 August)

Event Time Altitude Azimuth Distance (km) Brightness Sun altitude
Rises 00:44:04 0° 13° (NNE) 3,058 8.9 -16.1°
Reaches altitude 10° 00:46:18 10° 12° (NNE) 2,140 7.7 -16.0°
Maximum altitude 00:50:59 79° 287° (WNW) 708 3.8 -15.8°
Enters shadow 00:53:35 26° 204° (SSW) 1,336 4.6 -15.6°
